contact:dominique.lefevre@mio.osupytheas.fr, maurice.libes@osupytheas.fr, didier.mallarino@osupytheas.fr
Project:EMSO http://www.emso-fr.org/EMSO-France
Depth: 2436.0 m
Title:EMSO Ligure Ouest : Data MII capteur AQUADOPP
Date,Latitude,Longitude,X_East,Y_North,Z_Up,Amplitude_X,Amplitude_Y,Amplitude_Z,Batterie,SoundSpeed,Heading,Pitch,Roll,Pressure,TIS,Speed,Direction
, degrees North, degrees East, m.s-1, m.s-1,m.s-1, 1, 1, 1, Volt, m.s-1, degree, degree, degree, dbar, degree_C, m.s-1, degree
2023-05-06T00:04:03,42.805,6.029,0.041,-0.004,-0.011,102.0,102.0,101.0,13.4,1505.2,342.6,-0.7,1.8,2471.348,13.28,0.041,95.6
2023-05-06T00:07:03,42.805,6.029,0.039,0.013,0.0,102.0,104.0,100.0,13.4,1505.2,333.0,-0.8,1.8,2471.389,13.28,0.041,71.6
2023-05-06T00:10:03,42.805,6.029,0.025,0.0,-0.005,102.0,103.0,100.0,13.3,1505.2,342.1,-0.8,1.8,2471.357,13.28,0.025,90.0
2023-05-06T00:13:03,42.805,6.029,0.03,0.012,0.014,102.0,103.0,100.0,13.3,1505.2,328.1,-0.8,1.8,2471.365,13.28,0.032,68.2
2023-05-06T00:16:03,42.805,6.029,0.046,-0.006,0.028,103.0,103.0,101.0,13.3,1505.2,339.1,-0.8,1.8,2471.319,13.29,0.046,97.4
2023-05-06T00:19:03,42.805,6.029,0.031,0.014,0.003,103.0,103.0,101.0,13.3,1505.2,321.7,-0.8,1.8,2471.346,13.29,0.034,65.7
2023-05-06T00:22:03,42.805,6.029,0.032,-0.003,-0.024,102.0,103.0,101.0,13.4,1505.2,334.9,-0.7,1.8,2471.351,13.29,0.032,95.4
2023-05-06T00:25:03,42.805,6.029,0.036,0.01,0.011,102.0,102.0,102.0,13.4,1505.2,334.9,-0.7,1.8,2471.308,13.29,0.037,74.5
2023-05-06T00:28:03,42.805,6.029,0.027,0.013,0.001,103.0,103.0,100.0,13.4,1505.2,328.2,-0.8,1.8,2471.308,13.29,0.029,64.3
2023-05-06T00:31:03,42.805,6.029,0.039,-0.003,-0.023,104.0,102.0,100.0,13.4,1505.2,346.2,-0.8,1.8,2471.328,13.29,0.039,94.4
2023-05-06T00:34:03,42.805,6.029,0.038,0.018,0.002,102.0,102.0,101.0,13.4,1505.2,335.9,-0.8,1.8,2471.317,13.29,0.042,64.7
2023-05-06T00:37:03,42.805,6.029,0.02,0.0,-0.036,103.0,103.0,100.0,13.3,1505.2,337.4,-0.8,1.8,2471.308,13.29,0.02,90.0
2023-05-06T00:40:03,42.805,6.029,0.032,0.021,-0.012,102.0,102.0,101.0,13.3,1505.2,320.1,-0.7,1.8,2471.314,13.29,0.038,56.7
2023-05-06T00:43:03,42.805,6.029,0.04,0.004,-0.012,101.0,102.0,101.0,13.4,1505.2,335.5,-0.7,1.8,2471.292,13.29,0.04,84.3
2023-05-06T00:46:03,42.805,6.029,0.005,0.02,-0.017,102.0,103.0,100.0,13.4,1505.2,327.5,-0.8,1.8,2471.315,13.29,0.02,14.0
2023-05-06T00:49:03,42.805,6.029,0.024,0.008,-0.028,103.0,102.0,101.0,13.4,1505.2,342.2,-0.8,1.8,2471.313,13.29,0.025,71.6
2023-05-06T00:52:03,42.805,6.029,0.018,0.0,-0.025,102.0,102.0,101.0,13.4,1505.2,333.9,-0.8,1.8,2471.309,13.29,0.018,90.0
2023-05-06T00:55:03,42.805,6.029,0.052,0.016,-0.025,103.0,101.0,101.0,13.4,1505.2,325.8,-0.8,1.8,2471.275,13.29,0.054,72.9
2023-05-06T00:58:03,42.805,6.029,0.025,0.012,0.013,102.0,103.0,101.0,13.3,1505.2,332.4,-0.7,1.8,2471.327,13.29,0.027,64.4
2023-05-06T01:04:03,42.805,6.029,0.033,0.013,0.035,106.0,105.0,103.0,13.3,1505.2,330.5,-0.8,1.8,2471.309,13.28,0.035,68.5
2023-05-06T01:07:03,42.805,6.029,0.018,0.004,0.027,104.0,104.0,103.0,13.3,1505.2,334.8,-0.8,1.8,2471.312,13.28,0.018,77.5
2023-05-06T01:10:03,42.805,6.029,0.017,0.001,-0.03,104.0,103.0,101.0,13.4,1505.2,324.6,-0.7,1.8,2471.329,13.28,0.017,86.6
2023-05-06T01:13:03,42.805,6.029,0.022,0.0,-0.031,104.0,101.0,101.0,13.3,1505.2,321.0,-0.7,1.8,2471.268,13.29,0.022,90.0
2023-05-06T01:16:03,42.805,6.029,0.039,0.008,-0.003,102.0,104.0,101.0,13.3,1505.2,340.4,-0.8,1.9,2471.331,13.29,0.039,78.4
2023-05-06T01:19:03,42.805,6.029,0.048,-0.006,-0.026,102.0,103.0,101.0,13.4,1505.2,337.0,-0.7,1.8,2471.316,13.29,0.048,97.1
2023-05-06T01:22:03,42.805,6.029,0.057,-0.001,-0.011,102.0,103.0,100.0,13.4,1505.2,324.4,-0.8,1.8,2471.299,13.29,0.057,91.0
2023-05-06T01:25:03,42.805,6.029,0.016,0.006,-0.001,103.0,102.0,101.0,13.4,1505.2,339.1,-0.8,1.8,2471.279,13.29,0.017,69.4
2023-05-06T01:28:03,42.805,6.029,0.015,0.011,-0.027,103.0,102.0,100.0,13.4,1505.2,340.2,-0.8,1.8,2471.342,13.29,0.018,53.7
2023-05-06T01:31:03,42.805,6.029,0.004,0.025,-0.023,102.0,102.0,101.0,13.3,1505.2,327.5,-0.7,1.8,2471.285,13.29,0.025,9.1
2023-05-06T01:34:03,42.805,6.029,0.033,0.005,0.007,103.0,102.0,100.0,13.4,1505.2,319.8,-0.7,1.8,2471.26,13.29,0.033,81.4
2023-05-06T01:37:03,42.805,6.029,0.049,-0.01,-0.018,102.0,101.0,101.0,13.3,1505.2,327.8,-0.7,1.8,2471.275,13.29,0.05,101.5
2023-05-06T01:40:03,42.805,6.029,0.044,0.022,0.018,103.0,103.0,101.0,13.4,1505.2,324.1,-0.8,1.8,2471.282,13.29,0.049,63.4
2023-05-06T01:43:03,42.805,6.029,0.04,0.012,-0.041,102.0,102.0,101.0,13.4,1505.2,318.1,-0.8,1.8,2471.288,13.29,0.041,73.3
2023-05-06T01:46:03,42.805,6.029,0.017,0.008,-0.032,103.0,104.0,100.0,13.4,1505.2,326.5,-0.8,1.8,2471.278,13.29,0.018,64.8
2023-05-06T01:49:03,42.805,6.029,0.025,0.015,0.013,103.0,101.0,102.0,13.3,1505.2,346.7,-0.8,1.8,2471.28,13.29,0.029,59.0
2023-05-06T01:52:03,42.805,6.029,0.02,0.012,-0.016,103.0,103.0,101.0,13.4,1505.2,334.7,-0.7,1.8,2471.261,13.29,0.023,59.0
2023-05-06T01:55:03,42.805,6.029,0.034,0.003,0.0,103.0,103.0,100.0,13.4,1505.2,328.2,-0.8,1.8,2471.296,13.29,0.034,85.0
2023-05-06T01:58:03,42.805,6.029,0.035,0.015,-0.001,102.0,102.0,101.0,13.3,1505.2,323.5,-0.7,1.8,2471.272,13.29,0.038,66.8
2023-05-06T02:04:03,42.805,6.029,0.046,0.017,0.006,102.0,102.0,101.0,13.4,1505.2,329.8,-0.8,1.8,2471.304,13.28,0.049,69.7
2023-05-06T02:07:03,42.805,6.029,0.034,0.006,-0.005,101.0,102.0,101.0,13.4,1505.2,345.7,-0.8,1.8,2471.309,13.28,0.034,80.0
2023-05-06T02:10:03,42.805,6.029,0.046,0.009,-0.018,102.0,102.0,102.0,13.4,1505.2,325.5,-0.8,1.8,2471.329,13.28,0.046,78.9
2023-05-06T02:13:03,42.805,6.029,0.008,-0.007,-0.006,104.0,102.0,100.0,13.3,1505.2,325.3,-0.8,1.8,2471.301,13.29,0.01,131.2
2023-05-06T02:16:03,42.805,6.029,0.048,0.0,0.004,103.0,102.0,101.0,13.4,1505.2,336.5,-0.7,1.8,2471.304,13.29,0.048,90.0
2023-05-06T02:19:03,42.805,6.029,0.019,0.005,-0.019,103.0,103.0,101.0,13.4,1505.2,344.0,-0.8,1.8,2471.299,13.29,0.019,75.3
2023-05-06T02:22:03,42.805,6.029,0.046,0.004,0.018,103.0,101.0,101.0,13.4,1505.2,331.3,-0.8,1.8,2471.271,13.29,0.046,85.0
2023-05-06T02:25:03,42.805,6.029,0.017,0.003,-0.012,103.0,104.0,101.0,13.4,1505.2,342.6,-0.7,1.8,2471.298,13.29,0.017,80.0
2023-05-06T02:28:03,42.805,6.029,0.027,0.015,-0.018,105.0,101.0,101.0,13.4,1505.2,324.7,-0.7,1.8,2471.279,13.29,0.03,60.9
2023-05-06T02:31:03,42.805,6.029,0.015,0.003,-0.008,103.0,103.0,101.0,13.4,1505.2,330.3,-0.7,1.8,2471.268,13.29,0.015,78.7
2023-05-06T02:34:03,42.805,6.029,0.033,-0.002,-0.027,102.0,102.0,102.0,13.3,1505.2,321.6,-0.8,1.8,2471.294,13.29,0.033,93.5
2023-05-06T02:37:03,42.805,6.029,0.024,0.014,-0.006,102.0,103.0,102.0,13.4,1505.2,344.6,-0.8,1.8,2471.267,13.29,0.027,59.7
2023-05-06T02:40:03,42.805,6.029,0.055,-0.016,-0.044,103.0,104.0,100.0,13.4,1505.2,336.5,-0.8,1.8,2471.275,13.29,0.057,106.2
2023-05-06T02:43:03,42.805,6.029,0.039,-0.007,-0.035,103.0,102.0,101.0,13.4,1505.2,337.1,-0.8,1.8,2471.304,13.29,0.039,100.2
2023-05-06T02:46:03,42.805,6.029,0.025,0.028,-0.01,102.0,102.0,101.0,13.4,1505.2,327.0,-0.8,1.8,2471.275,13.29,0.037,41.8
2023-05-06T02:49:03,42.805,6.029,0.006,0.01,-0.033,103.0,105.0,101.0,13.3,1505.2,326.8,-0.8,1.8,2471.265,13.29,0.011,31.0
2023-05-06T02:52:03,42.805,6.029,0.036,0.003,-0.038,103.0,104.0,101.0,13.4,1505.2,344.3,-0.8,1.8,2471.272,13.29,0.036,85.2
2023-05-06T02:55:03,42.805,6.029,0.042,0.001,-0.02,103.0,103.0,100.0,13.3,1505.2,323.1,-0.7,1.8,2471.304,13.29,0.042,88.6
2023-05-06T02:58:03,42.805,6.029,0.012,0.026,-0.027,102.0,102.0,101.0,13.4,1505.2,318.6,-0.8,1.8,2471.254,13.29,0.028,24.8
2023-05-06T03:04:03,42.805,6.029,0.003,0.006,-0.039,103.0,103.0,100.0,13.4,1505.2,326.9,-0.8,1.8,2471.331,13.28,0.006,26.6
2023-05-06T03:07:03,42.805,6.029,0.019,0.014,-0.011,103.0,103.0,101.0,13.4,1505.2,330.2,-0.8,1.8,2471.35,13.28,0.023,53.6
2023-05-06T03:10:03,42.805,6.029,0.028,0.009,-0.016,103.0,102.0,102.0,13.4,1505.2,322.7,-0.7,1.8,2471.334,13.28,0.029,72.2
2023-05-06T03:13:03,42.805,6.029,0.03,0.018,0.005,102.0,101.0,102.0,13.4,1505.2,317.4,-0.7,1.8,2471.32,13.29,0.034,59.0
2023-05-06T03:16:03,42.805,6.029,0.039,0.022,0.001,102.0,102.0,101.0,13.3,1505.2,328.3,-0.8,1.9,2471.354,13.29,0.044,60.6
2023-05-06T03:19:03,42.805,6.029,0.018,0.02,-0.012,102.0,102.0,101.0,13.4,1505.2,332.9,-0.7,1.8,2471.3,13.29,0.026,42.0
2023-05-06T03:22:03,42.805,6.029,0.027,0.016,0.015,102.0,103.0,101.0,13.4,1505.2,322.7,-0.8,1.8,2471.304,13.29,0.031,59.3
2023-05-06T03:25:03,42.805,6.029,0.019,0.006,-0.016,103.0,103.0,100.0,13.3,1505.2,333.8,-0.8,1.8,2471.312,13.29,0.019,72.5
2023-05-06T03:28:03,42.805,6.029,0.005,0.03,-0.027,104.0,102.0,102.0,13.3,1505.2,320.4,-0.8,1.8,2471.331,13.29,0.03,9.5
2023-05-06T03:31:03,42.805,6.029,0.01,0.022,-0.009,104.0,103.0,101.0,13.4,1505.2,334.4,-0.7,1.8,2471.318,13.29,0.024,24.4
2023-05-06T03:34:03,42.805,6.029,0.019,0.019,-0.047,103.0,101.0,101.0,13.4,1505.2,336.2,-0.8,1.8,2471.348,13.29,0.026,45.0
2023-05-06T03:37:03,42.805,6.029,0.037,0.017,-0.005,103.0,102.0,101.0,13.4,1505.2,336.3,-0.8,1.8,2471.292,13.29,0.04,65.3
2023-05-06T03:40:03,42.805,6.029,0.024,0.004,-0.011,103.0,104.0,101.0,13.4,1505.2,324.8,-0.8,1.8,2471.307,13.29,0.024,80.5
2023-05-06T03:43:03,42.805,6.029,0.029,0.017,-0.028,102.0,101.0,100.0,13.4,1505.2,320.4,-0.8,1.8,2471.319,13.29,0.033,59.6
2023-05-06T03:46:03,42.805,6.029,0.014,0.028,-0.019,102.0,104.0,100.0,13.4,1505.2,325.2,-0.8,1.8,2471.357,13.29,0.031,26.6
2023-05-06T03:49:03,42.805,6.029,0.008,0.001,-0.005,103.0,101.0,101.0,13.4,1505.2,336.1,-0.8,1.8,2471.272,13.29,0.008,82.9
2023-05-06T03:52:03,42.805,6.029,0.025,0.009,-0.029,102.0,102.0,101.0,13.4,1505.2,320.4,-0.8,1.8,2471.321,13.29,0.026,70.2
2023-05-06T03:55:03,42.805,6.029,0.024,0.015,0.005,102.0,104.0,102.0,13.3,1505.2,335.7,-0.8,1.8,2471.358,13.29,0.028,58.0
2023-05-06T03:58:03,42.805,6.029,0.019,0.011,-0.013,101.0,102.0,101.0,13.4,1505.2,343.7,-0.8,1.8,2471.305,13.29,0.021,59.9
2023-05-06T04:04:03,42.805,6.029,0.024,-0.007,-0.002,100.0,103.0,101.0,13.4,1505.2,337.6,-0.8,1.8,2471.411,13.28,0.025,106.3
2023-05-06T04:07:03,42.805,6.029,0.038,-0.001,0.019,103.0,102.0,100.0,13.3,1505.2,336.5,-0.7,1.8,2471.359,13.28,0.038,91.5
2023-05-06T04:10:03,42.805,6.029,0.033,0.005,0.0,101.0,103.0,101.0,13.4,1505.2,333.0,-0.8,1.8,2471.375,13.28,0.033,81.4
2023-05-06T04:13:03,42.805,6.029,0.007,0.013,-0.021,101.0,102.0,101.0,13.3,1505.2,321.6,-0.8,1.8,2471.368,13.29,0.014,28.3
2023-05-06T04:16:03,42.805,6.029,0.032,-0.002,-0.04,103.0,100.0,101.0,13.4,1505.2,339.3,-0.7,1.8,2471.358,13.29,0.032,93.6
2023-05-06T04:19:03,42.805,6.029,0.041,0.019,-0.013,102.0,102.0,100.0,13.3,1505.2,325.0,-0.7,1.8,2471.367,13.29,0.045,65.1
2023-05-06T04:22:03,42.805,6.029,0.024,0.025,-0.003,103.0,103.0,100.0,13.4,1505.2,318.9,-0.7,1.8,2471.339,13.29,0.034,43.8
2023-05-06T04:25:03,42.805,6.029,0.001,0.036,-0.029,103.0,101.0,101.0,13.4,1505.2,333.0,-0.7,1.8,2471.371,13.29,0.036,1.6
2023-05-06T04:28:03,42.805,6.029,0.011,0.032,0.016,102.0,103.0,101.0,13.3,1505.2,324.4,-0.8,1.8,2471.34,13.29,0.033,19.0
2023-05-06T04:31:03,42.805,6.029,0.015,0.02,-0.005,102.0,101.0,101.0,13.4,1505.2,332.9,-0.7,1.8,2471.397,13.29,0.025,36.9
2023-05-06T04:34:03,42.805,6.029,0.023,0.025,-0.01,103.0,103.0,101.0,13.4,1505.2,346.2,-0.8,1.8,2471.376,13.29,0.033,42.6
2023-05-06T04:37:03,42.805,6.029,0.026,0.02,-0.009,102.0,103.0,102.0,13.4,1505.2,334.3,-0.8,1.8,2471.328,13.29,0.032,52.4
2023-05-06T04:40:03,42.805,6.029,0.035,0.019,-0.003,103.0,101.0,101.0,13.4,1505.2,324.5,-0.7,1.8,2471.351,13.29,0.039,61.5
2023-05-06T04:43:03,42.805,6.029,0.023,0.008,-0.036,103.0,103.0,101.0,13.3,1505.2,333.8,-0.8,1.8,2471.407,13.29,0.024,70.8
2023-05-06T04:46:03,42.805,6.029,0.026,0.014,0.01,102.0,102.0,100.0,13.3,1505.2,328.6,-0.7,1.8,2471.384,13.29,0.029,61.7
2023-05-06T04:49:03,42.805,6.029,0.015,0.0,-0.003,104.0,101.0,101.0,13.4,1505.2,337.9,-0.8,1.8,2471.358,13.29,0.015,90.0
2023-05-06T04:52:03,42.805,6.029,0.017,0.019,-0.008,103.0,103.0,100.0,13.3,1505.2,316.9,-0.7,1.8,2471.388,13.29,0.025,41.8
2023-05-06T04:55:03,42.805,6.029,0.026,0.017,-0.002,102.0,102.0,100.0,13.4,1505.2,331.3,-0.8,1.8,2471.397,13.29,0.031,56.8
2023-05-06T04:58:03,42.805,6.029,0.015,0.028,-0.03,103.0,101.0,102.0,13.4,1505.2,335.2,-0.8,1.8,2471.383,13.29,0.031,28.2
2023-05-06T05:04:03,42.805,6.029,0.021,0.019,-0.024,101.0,103.0,101.0,13.3,1505.2,334.3,-0.8,1.8,2471.447,13.28,0.028,47.9
2023-05-06T05:07:03,42.805,6.029,0.033,0.02,-0.033,103.0,103.0,101.0,13.4,1505.2,322.7,-0.7,1.8,2471.436,13.28,0.038,58.8
2023-05-06T05:10:03,42.805,6.029,0.041,0.008,-0.007,104.0,102.0,100.0,13.4,1505.2,330.1,-0.8,1.8,2471.423,13.28,0.041,79.0
2023-05-06T05:13:03,42.805,6.029,0.032,0.014,-0.003,102.0,102.0,101.0,13.4,1505.2,322.2,-0.8,1.8,2471.454,13.29,0.034,66.4
2023-05-06T05:16:03,42.805,6.029,0.034,0.011,0.013,103.0,104.0,101.0,13.4,1505.2,324.6,-0.8,1.8,2471.445,13.29,0.035,72.1
2023-05-06T05:19:03,42.805,6.029,0.021,0.006,0.003,102.0,102.0,101.0,13.3,1505.2,327.5,-0.8,1.8,2471.435,13.29,0.021,74.1
2023-05-06T05:22:03,42.805,6.029,0.006,0.014,-0.006,102.0,103.0,101.0,13.3,1505.2,317.5,-0.7,1.8,2471.428,13.29,0.015,23.2
2023-05-06T05:25:03,42.805,6.029,0.026,0.0,-0.032,102.0,103.0,101.0,13.4,1505.2,332.1,-0.7,1.8,2471.423,13.29,0.026,90.0
2023-05-06T05:28:03,42.805,6.029,0.041,0.005,0.0,103.0,102.0,101.0,13.4,1505.2,333.4,-0.7,1.8,2471.407,13.29,0.041,83.0
2023-05-06T05:31:03,42.805,6.029,0.033,0.008,-0.013,101.0,102.0,101.0,13.4,1505.2,335.9,-0.7,1.8,2471.475,13.29,0.033,76.4
2023-05-06T05:34:03,42.805,6.029,0.016,0.023,0.0,103.0,103.0,100.0,13.4,1505.2,321.6,-0.8,1.8,2471.426,13.29,0.028,34.8
2023-05-06T05:37:03,42.805,6.029,0.014,0.005,-0.022,103.0,102.0,102.0,13.4,1505.2,343.0,-0.7,1.8,2471.438,13.29,0.014,70.4
2023-05-06T05:40:03,42.805,6.029,0.028,0.023,-0.004,103.0,103.0,101.0,13.4,1505.2,329.8,-0.8,1.8,2471.442,13.29,0.036,50.6
2023-05-06T05:43:03,42.805,6.029,0.009,0.008,-0.034,102.0,102.0,102.0,13.4,1505.2,333.4,-0.8,1.8,2471.456,13.29,0.012,48.4
2023-05-06T05:46:03,42.805,6.029,0.026,0.009,-0.021,102.0,102.0,100.0,13.3,1505.2,326.8,-0.8,1.8,2471.428,13.29,0.027,70.9
2023-05-06T05:49:03,42.805,6.029,0.023,-0.006,-0.011,102.0,103.0,101.0,13.4,1505.2,321.6,-0.8,1.8,2471.447,13.29,0.023,104.6
2023-05-06T05:52:03,42.805,6.029,0.013,0.018,-0.013,102.0,103.0,101.0,13.4,1505.2,326.9,-0.7,1.8,2471.436,13.29,0.022,35.8
2023-05-06T05:55:03,42.805,6.029,0.027,0.015,0.008,103.0,103.0,101.0,13.4,1505.2,333.4,-0.8,1.8,2471.442,13.29,0.03,60.9
2023-05-06T05:58:03,42.805,6.029,0.013,0.025,-0.002,102.0,103.0,100.0,13.4,1505.2,319.3,-0.8,1.8,2471.413,13.29,0.028,27.5
2023-05-06T06:04:03,42.805,6.029,0.006,0.013,-0.024,102.0,101.0,100.0,13.4,1505.2,318.7,-0.7,1.8,2471.439,13.28,0.014,24.8
2023-05-06T06:07:03,42.805,6.029,0.025,0.01,-0.033,102.0,103.0,100.0,13.3,1505.2,341.2,-0.8,1.8,2471.466,13.28,0.026,68.2
2023-05-06T06:10:03,42.805,6.029,0.024,-0.002,0.007,102.0,102.0,101.0,13.4,1505.2,331.2,-0.8,1.8,2471.481,13.28,0.024,94.8
2023-05-06T06:13:03,42.805,6.029,0.043,0.019,0.022,102.0,102.0,100.0,13.4,1505.2,343.4,-0.7,1.8,2471.49,13.29,0.047,66.2
2023-05-06T06:16:03,42.805,6.029,0.009,0.014,0.001,102.0,101.0,100.0,13.4,1505.2,329.4,-0.8,1.8,2471.442,13.29,0.016,32.7
2023-05-06T06:19:03,42.805,6.029,-0.003,0.019,-0.015,102.0,102.0,101.0,13.4,1505.2,336.6,-0.8,1.8,2471.486,13.29,0.019,351.0
2023-05-06T06:22:03,42.805,6.029,0.021,0.011,-0.005,102.0,103.0,101.0,13.4,1505.2,329.8,-0.8,1.8,2471.476,13.29,0.023,62.4
2023-05-06T06:25:03,42.805,6.029,0.019,0.007,0.004,103.0,102.0,101.0,13.4,1505.2,345.1,-0.8,1.8,2471.431,13.29,0.02,69.8
2023-05-06T06:28:03,42.805,6.029,0.049,0.004,0.003,101.0,102.0,101.0,13.4,1505.2,323.1,-0.8,1.8,2471.48,13.29,0.049,85.3
2023-05-06T06:31:03,42.805,6.029,0.024,0.022,-0.016,102.0,102.0,101.0,13.4,1505.2,316.9,-0.7,1.8,2471.467,13.29,0.032,47.5
2023-05-06T06:34:03,42.805,6.029,0.015,0.006,0.01,101.0,104.0,100.0,13.4,1505.2,342.3,-0.7,1.8,2471.489,13.29,0.016,68.2
2023-05-06T06:37:03,42.805,6.029,0.014,0.013,-0.008,103.0,102.0,101.0,13.4,1505.2,325.3,-0.8,1.8,2471.442,13.29,0.019,47.1
2023-05-06T06:40:03,42.805,6.029,0.016,0.023,-0.004,102.0,103.0,100.0,13.3,1505.2,325.8,-0.8,1.8,2471.459,13.29,0.028,34.8
2023-05-06T06:43:03,42.805,6.029,0.036,0.022,0.029,102.0,103.0,101.0,13.4,1505.2,341.9,-0.8,1.8,2471.46,13.29,0.042,58.6
2023-05-06T06:46:03,42.805,6.029,0.022,0.027,0.0,103.0,101.0,102.0,13.4,1505.2,328.5,-0.7,1.8,2471.478,13.29,0.034,39.2
2023-05-06T06:49:03,42.805,6.029,0.025,0.016,-0.026,102.0,103.0,101.0,13.4,1505.2,318.5,-0.8,1.8,2471.456,13.29,0.029,57.4
2023-05-06T06:52:03,42.805,6.029,0.032,-0.002,-0.009,102.0,104.0,102.0,13.4,1505.2,345.7,-0.8,1.8,2471.459,13.29,0.032,93.6
2023-05-06T06:55:03,42.805,6.029,0.033,0.01,-0.015,103.0,105.0,101.0,13.3,1505.2,326.9,-0.7,1.8,2471.44,13.29,0.034,73.1
2023-05-06T06:58:03,42.805,6.029,0.036,0.023,-0.001,102.0,103.0,101.0,13.4,1505.2,324.2,-0.8,1.9,2471.475,13.29,0.042,57.4
2023-05-06T07:04:03,42.805,6.029,0.001,0.044,0.024,102.0,104.0,101.0,13.3,1505.2,327.4,-0.8,1.9,2471.499,13.28,0.044,1.3
2023-05-06T07:07:03,42.805,6.029,0.037,0.004,0.006,102.0,103.0,102.0,13.4,1505.2,345.1,-0.8,1.8,2471.506,13.28,0.037,83.8
2023-05-06T07:10:03,42.805,6.029,0.043,0.026,-0.012,101.0,102.0,102.0,13.3,1505.2,323.8,-0.8,1.8,2471.504,13.28,0.05,58.8
2023-05-06T07:13:03,42.805,6.029,0.033,0.022,-0.028,103.0,103.0,100.0,13.4,1505.2,324.5,-0.8,1.8,2471.493,13.29,0.039,56.3
2023-05-06T07:16:03,42.805,6.029,0.035,0.043,0.01,102.0,103.0,100.0,13.4,1505.2,318.7,-0.8,1.8,2471.468,13.29,0.055,39.1
2023-05-06T07:19:03,42.805,6.029,0.043,-0.002,0.0,102.0,103.0,100.0,13.4,1505.2,346.5,-0.8,1.8,2471.458,13.29,0.043,92.7
2023-05-06T07:22:03,42.805,6.029,0.05,-0.01,-0.013,103.0,103.0,101.0,13.4,1505.2,333.4,-0.8,1.8,2471.496,13.29,0.05,101.3
2023-05-06T07:25:03,42.805,6.029,0.018,0.035,0.004,101.0,103.0,99.0,13.3,1505.2,319.0,-0.8,1.8,2471.467,13.29,0.039,27.2
2023-05-06T07:28:03,42.805,6.029,0.024,0.011,-0.001,102.0,103.0,100.0,13.3,1505.2,345.9,-0.7,1.8,2471.465,13.29,0.026,65.4
2023-05-06T07:31:03,42.805,6.029,0.045,0.022,0.037,100.0,104.0,100.0,13.4,1505.2,323.8,-0.8,1.8,2471.458,13.29,0.05,63.9
2023-05-06T07:34:03,42.805,6.029,0.043,0.016,0.017,102.0,102.0,101.0,13.4,1505.2,321.2,-0.8,1.8,2471.448,13.29,0.045,69.6
2023-05-06T07:37:03,42.805,6.029,0.051,0.0,-0.01,102.0,103.0,101.0,13.3,1505.2,343.4,-0.8,1.8,2471.471,13.29,0.051,90.0
2023-05-06T07:40:03,42.805,6.029,0.037,0.02,-0.022,102.0,103.0,102.0,13.4,1505.2,332.5,-0.8,1.8,2471.451,13.29,0.042,61.6
2023-05-06T07:43:03,42.805,6.029,0.017,0.027,-0.027,102.0,104.0,100.0,13.4,1505.2,333.4,-0.7,1.8,2471.493,13.29,0.031,32.2
2023-05-06T07:46:03,42.805,6.029,0.031,0.014,-0.004,102.0,104.0,100.0,13.4,1505.2,316.2,-0.8,1.8,2471.475,13.29,0.034,65.7
2023-05-06T07:49:03,42.805,6.029,0.014,0.026,0.006,102.0,103.0,99.0,13.4,1505.2,340.5,-0.7,1.8,2471.45,13.29,0.029,28.3
2023-05-06T07:52:03,42.805,6.029,0.027,0.036,0.006,101.0,103.0,100.0,13.4,1505.2,321.9,-0.7,1.8,2471.42,13.29,0.045,36.9
2023-05-06T07:55:03,42.805,6.029,0.029,0.023,0.0,102.0,104.0,101.0,13.4,1505.2,336.5,-0.8,1.8,2471.468,13.29,0.037,51.6
2023-05-06T07:58:03,42.805,6.029,0.018,0.014,-0.022,102.0,104.0,101.0,13.4,1505.2,344.5,-0.7,1.8,2471.452,13.29,0.022,52.1
2023-05-06T08:04:03,42.805,6.029,-0.003,0.034,-0.008,103.0,103.0,100.0,13.3,1505.2,330.4,-0.7,1.8,2471.529,13.28,0.034,355.0
2023-05-06T08:07:03,42.805,6.029,0.048,0.021,0.009,102.0,103.0,100.0,13.4,1505.2,336.5,-0.7,1.8,2471.46,13.28,0.052,66.4
2023-05-06T08:10:03,42.805,6.029,0.03,0.003,0.025,102.0,103.0,100.0,13.4,1505.2,329.8,-0.8,1.8,2471.469,13.28,0.03,84.3
2023-05-06T08:13:03,42.805,6.029,0.04,0.012,0.001,101.0,103.0,102.0,13.4,1505.2,338.7,-0.8,1.8,2471.474,13.29,0.041,73.3
2023-05-06T08:16:03,42.805,6.029,0.035,0.028,-0.014,101.0,103.0,100.0,13.4,1505.2,324.4,-0.8,1.8,2471.432,13.29,0.044,51.3
2023-05-06T08:19:03,42.805,6.029,0.016,0.008,-0.032,102.0,104.0,99.0,13.3,1505.2,337.3,-0.7,1.9,2471.449,13.29,0.017,63.4
2023-05-06T08:22:03,42.805,6.029,0.008,0.026,-0.03,102.0,104.0,102.0,13.4,1505.2,326.3,-0.8,1.8,2471.46,13.29,0.027,17.1
2023-05-06T08:25:03,42.805,6.029,0.024,0.015,0.007,102.0,103.0,100.0,13.4,1505.2,318.7,-0.8,1.8,2471.442,13.29,0.028,58.0
2023-05-06T08:28:03,42.805,6.029,0.019,0.014,-0.026,102.0,103.0,101.0,13.4,1505.2,340.0,-0.8,1.8,2471.428,13.29,0.023,53.6
2023-05-06T08:31:03,42.805,6.029,0.008,0.006,-0.006,103.0,103.0,100.0,13.4,1505.2,332.0,-0.8,1.8,2471.471,13.29,0.01,53.1
2023-05-06T08:34:03,42.805,6.029,-0.014,0.004,-0.034,102.0,103.0,100.0,13.4,1505.2,316.3,-0.8,1.8,2471.427,13.29,0.014,285.9
2023-05-06T08:37:03,42.805,6.029,0.018,0.014,0.02,103.0,104.0,100.0,13.4,1505.2,332.8,-0.8,1.8,2471.427,13.29,0.022,52.1
2023-05-06T08:40:03,42.805,6.029,0.028,0.023,0.001,102.0,103.0,101.0,13.4,1505.2,321.8,-0.8,1.8,2471.439,13.29,0.036,50.6
2023-05-06T08:43:03,42.805,6.029,0.035,0.013,-0.015,102.0,104.0,101.0,13.4,1505.2,334.7,-0.8,1.8,2471.412,13.29,0.037,69.6
2023-05-06T08:46:03,42.805,6.029,0.058,0.009,-0.009,102.0,103.0,101.0,13.4,1505.2,325.7,-0.8,1.8,2471.467,13.29,0.058,81.2
2023-05-06T08:49:03,42.805,6.029,0.021,0.003,-0.009,100.0,106.0,101.0,13.4,1505.2,319.8,-0.8,1.8,2471.43,13.29,0.021,81.9
2023-05-06T08:52:03,42.805,6.029,0.019,0.012,-0.019,102.0,103.0,101.0,13.4,1505.2,332.9,-0.8,1.8,2471.408,13.29,0.022,57.7
2023-05-06T08:55:03,42.805,6.029,0.03,0.017,0.016,102.0,103.0,102.0,13.4,1505.2,337.5,-0.7,1.8,2471.396,13.29,0.034,60.5
2023-05-06T08:58:03,42.805,6.029,0.027,0.016,0.025,102.0,103.0,101.0,13.4,1505.2,331.3,-0.7,1.8,2471.434,13.29,0.031,59.3
2023-05-06T09:04:03,42.805,6.029,0.028,0.0,-0.005,103.0,104.0,101.0,13.4,1505.2,321.1,-0.8,1.8,2471.476,13.28,0.028,90.0
2023-05-06T09:07:03,42.805,6.029,0.046,0.016,0.013,102.0,104.0,101.0,13.4,1505.2,340.0,-0.7,1.8,2471.479,13.28,0.048,70.8
2023-05-06T09:10:03,42.805,6.029,0.019,0.011,-0.025,102.0,103.0,100.0,13.4,1505.2,334.4,-0.8,1.8,2471.433,13.28,0.021,59.9
2023-05-06T09:13:03,42.805,6.029,0.012,0.036,0.019,102.0,103.0,101.0,13.4,1505.2,316.3,-0.7,1.8,2471.387,13.29,0.037,18.4
2023-05-06T09:16:03,42.805,6.029,0.02,0.0,-0.005,102.0,103.0,101.0,13.4,1505.2,340.0,-0.8,1.8,2471.467,13.29,0.02,90.0
2023-05-06T09:19:03,42.805,6.029,0.022,0.025,-0.035,103.0,104.0,100.0,13.4,1505.2,321.9,-0.8,1.8,2471.43,13.29,0.033,41.3
2023-05-06T09:22:03,42.805,6.029,0.021,0.01,-0.011,102.0,104.0,102.0,13.4,1505.2,329.8,-0.8,1.8,2471.416,13.29,0.023,64.5
2023-05-06T09:25:03,42.805,6.029,0.03,0.004,-0.016,102.0,103.0,100.0,13.4,1505.2,320.1,-0.7,1.8,2471.448,13.29,0.03,82.4
2023-05-06T09:28:03,42.805,6.029,0.052,0.017,-0.012,103.0,105.0,100.0,13.3,1505.2,341.9,-0.8,1.8,2471.416,13.29,0.054,71.9
2023-05-06T09:31:03,42.805,6.029,0.016,0.012,-0.027,103.0,104.0,100.0,13.4,1505.2,334.9,-0.7,1.8,2471.404,13.29,0.02,53.1
2023-05-06T09:34:03,42.805,6.029,0.026,0.031,0.007,102.0,104.0,100.0,13.4,1505.2,342.6,-0.7,1.8,2471.408,13.29,0.04,40.0
2023-05-06T09:37:03,42.805,6.029,0.023,0.027,-0.009,101.0,104.0,101.0,13.4,1505.2,337.8,-0.7,1.8,2471.422,13.29,0.035,40.4
2023-05-06T09:40:03,42.805,6.029,0.026,0.029,0.021,101.0,103.0,101.0,13.3,1505.2,345.4,-0.7,1.8,2471.416,13.29,0.038,41.9
2023-05-06T09:43:03,42.805,6.029,0.021,0.014,0.028,101.0,103.0,101.0,13.4,1505.2,332.5,-0.7,1.8,2471.366,13.29,0.025,56.3
2023-05-06T09:46:03,42.805,6.029,0.021,0.022,-0.003,103.0,103.0,101.0,13.4,1505.2,316.9,-0.8,1.8,2471.37,13.29,0.03,43.7
2023-05-06T09:49:03,42.805,6.029,0.028,-0.003,0.001,102.0,103.0,100.0,13.3,1505.2,342.3,-0.8,1.8,2471.438,13.29,0.028,96.1
2023-05-06T09:52:03,42.805,6.029,-0.006,0.015,-0.011,103.0,103.0,100.0,13.3,1505.2,332.5,-0.8,1.8,2471.41,13.29,0.016,338.2
2023-05-06T09:55:03,42.805,6.029,0.041,0.028,0.024,102.0,104.0,101.0,13.4,1505.2,319.7,-0.8,1.8,2471.412,13.29,0.049,55.7
2023-05-06T09:58:03,42.805,6.029,0.023,0.022,0.008,101.0,103.0,101.0,13.4,1505.2,324.5,-0.8,1.8,2471.351,13.29,0.031,46.3
2023-05-06T10:04:03,42.805,6.029,0.018,0.019,-0.011,102.0,104.0,101.0,13.4,1505.2,327.0,-0.8,1.8,2471.37,13.28,0.026,43.5
2023-05-06T10:07:03,42.805,6.029,0.035,0.02,-0.016,102.0,105.0,101.0,13.4,1505.2,327.8,-0.7,1.8,2471.427,13.28,0.04,60.3